Mitchell, SD

4:41 PM CDT on September 19, 2019 (GMT -0500)
Mitchell Municipal

Weather History for KMHE - July, 2019

Change the Weather History Date:

Monday, July 15, 2019

  Actual Average Record
Temperature  
Mean Temperature 86 °F 75 °F  
Max Temperature 96 °F 87 °F 109 °F (1936)
Min Temperature 75 °F 63 °F 40 °F (1912)
Degree Days  
Heating Degree Days 0 0  
Month to date heating degree days 0 0  
Since 1 June heating degree days 16 35  
Since 1 July heating degree days 0 0  
Cooling Degree Days 21 10  
Month to date cooling degree days 196 148  
Year to date cooling degree days 407 358  
Since 1 June cooling degree days 388 318  
Growing Degree Days 35 (Base 50)    
Moisture  
Dew Point 72 °F    
Average Humidity 67    
Maximum Humidity 88    
Minimum Humidity 46    
Precipitation  
Precipitation 0.00 in 0.10 in 1.21 in (2000)
Month to date precipitation 2.91 1.62  
Year to date precipitation 17.37 12.48  
Snow  
Snow 0.00 in - 0.00 in ()
Month to date snowfall 0.0  
Since 1 June snowfall 0.0  
Since 1 July snowfall 0.0  
Snow Depth 0.00 in    
Sea Level Pressure  
Sea Level Pressure 29.81 in    
Wind  
Wind Speed 5 mph (ENE)    
Max Wind Speed 13 mph    
Max Gust Speed 19 mph    
Visibility 10 miles    
Events      
T = Trace of Precipitation, MM = Missing Value Source: NWS Daily Summary

Daily Weather History Graph

Daily Weather History Graph

Search for Another Location

Airport or City:

Astronomy

Jul. 15, 2019 Rise Set
Actual Time 6:03 AM CDT 9:11 PM CDT
Civil Twilight 5:29 AM CDT 9:46 PM CDT
Nautical Twilight 4:44 AM CDT 10:31 PM CDT
Astronomical Twilight 3:50 AM CDT 11:24 PM CDT
Moon 8:31 PM CDT (7/15) 4:51 AM CDT (7/15)
Length of Visible Light 16h 17m
Length of Day
15h 07m
Waxing Gibbous, 99% of the Moon is Illuminated
Jul 15
Waxing Gibbous
Jul 16
Full
Jul 24
Last Quarter
Jul 31
New
Aug 7
First Quarter

Hourly Weather History & Observations

Time (CDT) Temp. Heat Index Dew Point Humidity Pressure Visibility Wind Dir Wind Speed Gust Speed Precip Events Conditions
12:53 AM 80.1 °F 83.6 °F 71.1 °F 74% 29.82 in 10.0 mi South 12.7 mph - N/A   Clear
1:53 AM 79.0 °F - 71.1 °F 77% 29.81 in 10.0 mi SSE 6.9 mph - N/A   Partly Cloudy
2:53 AM 79.0 °F - 70.0 °F 74% 29.81 in 10.0 mi SSE 3.5 mph - N/A   Mostly Cloudy
3:53 AM 75.0 °F - 71.1 °F 87% 29.82 in 10.0 mi ENE 8.1 mph - N/A   Partly Cloudy
4:53 AM 75.0 °F - 70.0 °F 84% 29.81 in 10.0 mi ESE 10.4 mph - N/A   Clear
5:53 AM 75.0 °F - 69.1 °F 82% 29.82 in 10.0 mi SE 10.4 mph - N/A   Clear
6:53 AM 75.0 °F - 69.1 °F 82% 29.82 in 10.0 mi SE 6.9 mph - N/A   Clear
7:53 AM 78.1 °F - 70.0 °F 76% 29.83 in 10.0 mi SSE 8.1 mph - N/A   Clear
8:53 AM 82.0 °F 86.3 °F 71.1 °F 69% 29.84 in 10.0 mi SSW 5.8 mph - N/A   Clear
9:53 AM 84.0 °F 88.4 °F 70.0 °F 63% 29.82 in 10.0 mi Variable 4.6 mph - N/A   Clear
10:53 AM 86.0 °F 90.7 °F 70.0 °F 59% 29.82 in 10.0 mi WNW 5.8 mph - N/A   Clear
11:53 AM 88.0 °F 93.8 °F 71.1 °F 57% 29.80 in 10.0 mi Calm Calm - N/A   Clear
12:53 PM 90.0 °F 96.9 °F 72.0 °F 55% 29.80 in 10.0 mi Variable 4.6 mph - N/A   Clear
1:53 PM 93.0 °F 101.9 °F 73.0 °F 52% 29.80 in 10.0 mi North 5.8 mph - N/A   Clear
2:53 PM 93.0 °F 103.2 °F 73.9 °F 54% 29.78 in 10.0 mi Calm Calm - N/A   Clear
3:53 PM 95.0 °F 103.2 °F 72.0 °F 47% 29.80 in 10.0 mi NE 9.2 mph - N/A   Partly Cloudy
4:53 PM 90.0 °F 99.0 °F 73.9 °F 59% 29.80 in 10.0 mi NNE 8.1 mph - N/A   Clear
5:53 PM 88.0 °F 97.5 °F 75.0 °F 65% 29.81 in 10.0 mi Calm Calm - N/A   Clear
6:53 PM 91.0 °F 99.3 °F 73.0 °F 55% 29.78 in 10.0 mi North 5.8 mph - N/A   Clear
7:53 PM 87.1 °F 95.4 °F 73.9 °F 65% 29.80 in 10.0 mi WSW 6.9 mph - N/A   Clear
8:53 PM 82.9 °F 88.8 °F 73.0 °F 72% 29.79 in 10.0 mi NW 4.6 mph - N/A   Clear
9:53 PM 81.0 °F 86.2 °F 73.9 °F 79% 29.80 in 10.0 mi NNW 3.5 mph - N/A   Clear
10:53 PM 77.0 °F - 73.0 °F 88% 29.81 in 10.0 mi NNW 5.8 mph - N/A   Clear
11:53 PM 78.1 °F - 71.1 °F 79% 29.83 in 10.0 mi WNW 4.6 mph - N/A   Clear